This is the latest recevied weather packets stored in our database for station/object K1TTC. If no packets are shown the sender has not sent any weather packets the latest 10 day(s).
| Time | Temp. | Humidity | Pressure | Rain* | Wind** | Luminosity | Snow |
|---|---|---|---|---|---|---|---|
| 1788170687 | 15.56° C | 73% | 1021.4 hPa | 0 mm | - | 0 W/m² | - |
| 1788169953 | 16.11° C | 73% | 1021.2 hPa | 0 mm | - | 0 W/m² | - |
| 1788169480 | 16.11° C | 73% | 1021.1 hPa | 0 mm | - | 0 W/m² | - |
| 1788168751 | 16.11° C | 72% | 1021 hPa | 0 mm | - | 0 W/m² | - |
| 1788168151 | 16.67° C | 72% | 1020.9 hPa | 0 mm | - | 0 W/m² | - |
| 1788167549 | 16.67° C | 72% | 1020.7 hPa | 0 mm | - | 0 W/m² | - |
| 1788166947 | 16.67° C | 71% | 1020.6 hPa | 0 mm | - | 0 W/m² | - |
| 1788166349 | 16.67° C | 71% | 1020.5 hPa | 0 mm | - | 0 W/m² | - |
| 1788165746 | 17.22° C | 71% | 1020.3 hPa | 0 mm | - | 0 W/m² | - |
| 1788165144 | 17.22° C | 71% | 1020.2 hPa | 0 mm | - | 0 W/m² | - |
| 1788164667 | 17.78° C | 70% | 1020.1 hPa | 0 mm | - | 0 W/m² | - |
| 1788163942 | 17.78° C | 70% | 1020.2 hPa | 0 mm | - | 0 W/m² | - |
| 1788163343 | 17.78° C | 69% | 1020.2 hPa | 0 mm | - | 0 W/m² | - |
| 1788162742 | 18.33° C | 69% | 1019.9 hPa | 0 mm | - | 0 W/m² | - |
| 1788162141 | 18.33° C | 68% | 1019.8 hPa | 0 mm | - | 0 W/m² | - |
| 1788161540 | 18.89° C | 68% | 1019.6 hPa | 0 mm | - | 0 W/m² | - |
| 1788160940 | 19.44° C | 68% | 1019.7 hPa | 0 mm | - | 0 W/m² | - |
| 1788160336 | 19.44° C | 67% | 1019.6 hPa | 0 mm | - | 0 W/m² | - |
| 1788159737 | 19.44° C | 68% | 1019.5 hPa | 0 mm | - | 0 W/m² | - |
| 1788159136 | 19.44° C | 67% | 1019.5 hPa | 0 mm | - | 0 W/m² | - |
| 1788158536 | 20° C | 67% | 1019.6 hPa | 0 mm | - | 0 W/m² | - |
| 1788157939 | 20° C | 67% | 1019.6 hPa | 0 mm | - | 0 W/m² | - |
| 1788157336 | 20° C | 67% | 1019.5 hPa | 0 mm | - | 0 W/m² | - |
| 1788156736 | 20° C | 67% | 1019.5 hPa | 0 mm | - | 0 W/m² | - |
| 1788156132 | 20.56° C | 66% | 1019.3 hPa | 0 mm | - | 0 W/m² | - |
* Rain latest hour (hover to see other rain measurements)
** Current wind speed in m/s (hover to see current wind gust speed)